Tracking 22441 objects as of 28-Feb-2021
HD Live streaming from Space Station
objects crossing your sky now

DELTA 1 DEB

Track DELTA 1 DEB now!
10-day predictions


NORAD ID: 21545
Int'l Code: 1975-052GZ
Perigee: 1,011.4 km
Apogee: 1,360.8 km
Inclination: 99.7 °
Period: 109.0 minutes
Semi major axis: 7557 km
RCS: 0.0066 m2 (small)
Launch date: June 12, 1975
Source: United States (US)
Launch site: AIR FORCE WESTERN TEST RANGE (AFWTR)

Note: This is SATELLITE DEBRIS
aabbcc
Your satellite tracking list
Your tracking list is empty




NASA's NSSDC Master Catalog

Two Line Element Set (TLE):
1 21545U 75052GZ  21059.18301036 -.00000007  00000-0  73295-4 0  9993
2 21545  99.7376 320.3418 0231184 338.2945 182.3545 13.21509269437239
Source of the keplerian elements: AFSPC